Location: Riedlingen
(48.1569°N, 9.4757°E)
Time: 03:29:51
(UTC+02:00)

ISS - Pass Details

Date: 19 May 2021
Orbit: 417 x 422 km, 51.6° (Epoch: 15 June)

Event Time Altitude Azimuth Distance (km) Brightness Sun altitude
Rises 00:29:05 0° 284° (WNW) 2,369 0.4 -21.2°
Reaches altitude 10° 00:31:14 10° 291° (WNW) 1,505 -0.5 -21.3°
Maximum altitude 00:34:30 46° 6° (N) 577 -2.7 -21.4°
Enters shadow 00:36:14 23° 69° (ENE) 934 -1.9 -21.4°
